{"data":{"norad_id":62236,"intl_designator":"2024-231U","name":"STARLINK-32641","alt_names":[],"object_type":"PAYLOAD","status":"ACTIVE","operator":null,"country":"US","launch_date":"2024-12-05","launch_site_code":"AFWTR","launch_vehicle":null,"mission":null,"orbit_class":"UNKNOWN","rcs_meters":null,"size_class":null,"mass_kg":null,"dimensions":null,"purposes":["comms"],"wikipedia_slug":null,"has_3d_model":false,"image_url":null,"decayed_at":null,"tle_current":{"epoch":"2026-05-25T05:02:30.061824Z","epoch_age_seconds":53583,"freshness":"FRESH","line1":"1 62236U 24231U   26145.21007016  .00016085  00000+0  55388-3 0  9997","line2":"2 62236  53.1566 211.4398 0001037  68.4937 291.6175 15.30208114 83651","mean_motion":15.30208114,"eccentricity":0.0001037,"inclination_deg":53.1566,"raan_deg":211.4398,"arg_perigee_deg":68.4937,"mean_anomaly_deg":291.6175,"bstar":0.00055388,"rev_number":8365,"period_min":94.104846708452,"perigee_km":474.48015248766,"apogee_km":475.90153268221,"semimajor_km":6853.3278425849,"source":"CELESTRAK","updated_at":"2026-05-25T13:38:19.639863Z"}}}